Location: Poughquag
(41.6090°N, 73.6820°W)
Time: 12:31:22
(UTC-04:00)

Transit 4A - Pass Details

Date: 02 June 2020
Orbit: 866 x 978 km, 66.8° (Epoch: 06 July)

Event Time Altitude Azimuth Distance (km) Brightness Sun altitude
Rises 09:04:18 0° 338° (NNW) 3,554 10.7 38.8°
Reaches altitude 10° 09:07:32 10° 355° (N) 2,630 10.3 39.5°
Maximum altitude 09:11:58 20° 41° (NE) 2,014 10.4 40.3°
Drops below altitude 10° 09:16:28 10° 88° (E) 2,678 11.5 41.1°
Sets 09:19:46 0° 104° (ESE) 3,638 11.8 41.7°
